Вернуться в каталог

COSMOS 1195

АктивенНавигацияLEO
NORAD 11878·PAYLOAD·🇷🇺 Russia

Запущен Jul 9, 1980 с Plesetsk Cosmodrome

Loading…

Ближайшие Пролёты (ближайшие 24 часа)

TLE

СвежийSource: Space-Track

Эпоха: Sep 14, 2026, 06:09 UTC

1 11878U 80058D   26257.25647203  .00000004  00000-0  13381-3 0  9990
2 11878  74.0193 173.4224 0016532 317.5427 211.0253 12.50617732108490

Отслеживайте COSMOS 1195 в реальном времени с AllMySat

Download on the App Store